Location: The Dilly Hill Observatory
(31.5262°N, 86.8310°W)
Time: 13:06:58
(UTC-05:00)

ISS - Visible Passes

Search period start: 24 April 2018 00:00
Search period end: 04 May 2018 00:00
Orbit: 403 x 406 km, 51.6° (Epoch: 25 April)

Date Brightness Start Highest point End Pass type
(mag) Time Alt. Az. Time Alt. Az. Time Alt. Az.
26 Apr -0.8 05:36:54 10° SE 05:37:44 11° SE 05:38:35 10° ESE visible
28 Apr -2.2 05:26:28 10° SSW 05:29:22 31° SE 05:32:18 10° ENE visible
29 Apr -1.2 04:35:30 10° SSE 04:37:14 14° SE 04:39:05 10° E visible
30 Apr -3.9 05:18:18 13° SW 05:21:06 79° NW 05:24:22 10° NE visible
01 May -3.0 04:28:18 38° SSE 04:28:49 41° SE 04:31:56 10° ENE visible
02 May -0.9 03:38:12 14° E 03:38:12 14° E 03:38:59 10° E visible
02 May -2.5 05:10:51 15° W 05:12:56 27° NW 05:15:47 10° NNE visible
03 May -3.6 04:20:39 57° NNW 04:20:39 57° NNW 04:23:44 10° NE visible
